User: anonymous   Login
Location: Smithers
(54.7670°N, 127.1670°W)
Time: 03:53:12
(UTC-07:00)
Language:

ERBS - Orbit

View from above orbital plane
View from above orbital plane
View from above satellite
View from above satellite

Ground track
Ground track

The orbit data is extracted from the following two-line orbital elements,

1 15354U 84108B   17205.56178885 +.00002066 +00000-0 +53592-4 0  9994
2 15354 057.0091 337.4496 0012471 150.2296 209.9471 15.43850104803709
Epoch (UTC): 24 July 2017 13:28:58
Eccentricity: 0.0012471
inclination: 57.0091°
perigee height: 426 km
apogee height: 443 km
right ascension of ascending node: 337.4496°
argument of perigee: 150.2296°
revolutions per day: 15.43850104
mean anomaly at epoch: 209.9471°
orbit number at epoch: 80370

The dashed part of the orbit path shows where the satellite is in the earth's shadow,  

DLR